Location: Le Rocchette
(44.3500°N, 7.8333°E)
Time: 01:08:40
(UTC+00:00)

Cosmos 1484 Rocket - Pass Details

Date: 17 November 2019
Orbit: 507 x 559 km, 97.4° (Epoch: 09 December)

Event Time Altitude Azimuth Distance (km) Brightness Sun altitude
Rises 05:36:04 0° 358° (N) 2,748 6.2 -9.2°
Reaches altitude 10° 05:38:37 10° 341° (NNW) 1,852 5.2 -8.8°
Maximum altitude 05:41:35 20° 294° (WNW) 1,316 4.1 -8.3°
Drops below altitude 10° 05:44:32 10° 246° (WSW) 1,846 5.1 -7.8°
Sets 05:47:04 0° 229° (SW) 2,735 6.1 -7.4°
